Temperature
18 18 18 18 18 18 18 18 18 18 18 18 18 18 18 18 18 18 18 18 18 18 18 18 18 18 18 18 18 18 18 18 18 18 18 18 18 18 18 18 17 17 17
18 18 18 18 18 18 18 18 18 18 18 18 18 18 18 18 18 18 18 18 18 18 18 18 18 18 18 18 18 18 17 17 17 18 17 17 17 17 17 17 17 17 17
18 18 18 18 18 18 18 18 18 18 18 18 18 18 18 18 18 18 18 18 18 18 18 18 18 18 18 17 17 17 17 17 17 17 17 17 17 17 17 17 17 17 17
18 18 18 18 18 18 18 18 18 18 18 18 18 18 18 18 18 18 18 18 18 18 18 18 18 18 18 17 17 17 17 17 17 17 17 17 17 17 17 17 17 17 16
17 17 18 18 18 18 18 18 18 18 18 18 18 18 18 18 18 18 18 18 18 18 18 18 18 18 18 18 18 17 17 17 17 17 17 17 17 17 17 17 17 16 16
17 17 17 17 17 18 18 17 18 18 18 18 18 18 18 18 18 18 18 18 18 18 18 18 18 18 18 18 18 17 17 17 17 17 17 17 17 17 17 17 16 16 16
16 16 17 17 17 17 17 17 17 18 18 18 18 18 18 18 18 18 18 18 18 18 18 18 18 18 18 18 18 18 18 17 17 17 17 17 17 17 17 16 16 16 16
16 16 16 17 17 17 17 17 17 17 17 18 18 18 18 18 18 18 18 18 18 18 18 18 18 18 18 18 18 18 18 18 17 17 17 17 17 17 17 16 16 16 16
15 16 16 16 16 16 17 17 17 17 17 17 17 17 18 18 18 18 18 18 18 18 18 18 18 18 18 18 18 18 18 17 17 17 17 17 17 17 17 16 16 16 16
15 15 15 16 16 16 16 16 17 17 17 17 17 17 17 18 18 18 18 18 18 18 18 18 17 18 18 17 17 17 17 17 17 17 17 17 17 17 17 16 16 16 16
15 15 15 15 15 16 16 16 16 16 16 17 17 17 17 17 17 17 17 17 17 17 17 17 17 17 17 17 17 17 17 17 17 17 17 17 17 17 17 17 16 16 16
15 15 15 15 15 15 16 16 16 16 16 16 16 16 16 16 17 17 17 17 17 17 17 17 17 17 17 17 17 17 17 17 17 17 17 17 16 16 16 16 16 16 16
14 14 15 15 15 15 15 15 15 16 16 16 16 16 16 16 16 16 16 17 17 17 17 17 17 17 17 17 17 17 17 16 16 16 16 16 16 16 16 16 16 16 16
13 14 14 14 15 15 15 15 15 15 15 15 15 15 15 15 16 16 16 16 16 16 16 16 16 16 17 17 17 17 16 16 16 16 16 16 16 16 16 16 16 15 15
13 13 14 14 14 14 14 14 15 15 15 15 15 15 15 15 15 15 15 15 15 15 16 16 16 16 16 16 16 16 16 16 16 16 15 15 15 15 15 15 15 15 15
13 13 13 14 14 14 14 14 14 14 15 15 15 15 15 15 15 15 15 15 15 15 15 15 15 16 16 16 15 16 16 15 15 15 15 15 15 15 15 15 15 15 14
13 13 13 13 13 14 14 14 14 14 14 14 14 15 15 15 15 15 15 15 15 15 15 15 15 15 15 15 15 15 15 15 15 15 15 14 14 14 14 14 14 14 14
12 12 13 13 13 13 13 13 14 14 14 14 14 14 14 14 14 14 14 14 14 14 14 14 14 14 14 14 14 14 14 14 14 14 14 14 14 14 14 14 14 14 13
12 12 12 12 13 13 13 13 13 13 13 14 14 14 14 14 14 14 14 14 14 14 14 14 14 14 14 14 14 14 14 14 14 14 13 13 13 13 13 13 13 13 13
12 12 12 12 12 12 12 13 13 13 13 13 13 14 14 14 14 14 14 14 14 14 14 14 14 14 14 13 14 13 13 13 13 13 13 13 13 13 13 13 13 13 13
11 11 11 12 12 12 12 12 12 12 13 13 13 13 13 13 13 14 14 14 14 14 13 13 13 13 13 13 13 13 13 13 13 13 13 12 12 12 12 12 12 12 13
11 11 11 11 12 12 12 12 12 12 12 12 13 13 13 13 13 13 13 13 13 13 13 13 13 13 13 13 13 13 13 13 12 12 12 12 12 12 12 12 12 12 12
10 11 11 11 11 11 11 11 11 12 12 12 12 12 13 13 13 13 13 13 13 13 13 13 13 13 13 13 13 13 13 13 13 12 12 11 11 11 11 11 11 11 12
10 10 10 10 10 11 11 11 11 11 11 12 12 12 12 12 12 13 13 13 13 13 13 13 13 13 13 13 13 13 13 12 12 12 12 11 11 11 11 11 11 11 11
10 10 10 10 10 11 11 11 11 11 11 11 11 12 12 12 12 12 12 13 13 13 13 13 13 13 13 13 13 13 12 12 12 11 11 11 10 10 10 10 10 10 10
10 10 10 10 10 10 10 10 11 11 11 11 11 11 11 12 12 12 12 12 13 12 13 13 13 13 13 13 13 13 13 12 12 11 11 11 11 10 10 9 10 10 10
Wind_Speed
6 6 6 8 10 11 10 8 8 7 7 9 10 9 8 9 10 12 13 16 15 13 12 11 11 10 9 9 9 9 9 9 9 9 9 9 9 9 9 8 8 8 7
6 5 6 6 7 10 11 9 8 7 6 6 7 8 9 10 12 13 13 15 16 14 13 12 12 11 10 10 10 10 9 9 9 9 9 9 9 9 8 7 7 6 6
9 6 6 6 7 11 11 8 8 7 6 6 7 7 6 9 12 13 14 14 14 14 14 13 13 12 11 11 11 10 10 10 10 9 9 9 9 8 8 7 6 6 5
9 6 5 5 6 8 6 6 6 6 6 5 5 5 4 6 10 12 13 13 13 13 14 15 14 13 13 12 12 11 11 11 11 10 10 9 9 8 8 7 6 5 5
7 5 4 5 6 4 5 6 5 4 5 5 5 4 4 5 7 10 9 12 13 13 14 15 16 15 14 13 12 12 12 12 12 11 10 10 10 9 8 7 7 6 5
6 5 4 5 5 5 5 4 4 4 3 4 4 2 2 4 5 7 9 10 12 14 15 14 15 15 16 15 14 14 13 13 13 12 11 11 10 9 8 8 7 7 6
6 4 5 5 5 5 6 6 4 4 3 3 3 0 1 1 3 5 6 6 8 12 14 14 14 13 13 16 16 15 15 14 14 13 12 12 11 10 9 8 8 7 6
6 5 5 5 6 5 6 7 5 4 3 3 4 3 1 2 1 2 4 6 7 7 8 13 12 13 13 13 15 17 16 15 15 14 13 12 12 11 10 9 8 7 6
6 5 5 5 6 6 7 8 7 7 5 3 3 4 4 5 2 1 2 3 5 5 6 8 11 13 14 14 14 16 17 17 16 15 14 13 12 11 10 9 8 7 6
5 5 5 5 6 6 7 7 8 6 6 5 3 3 3 4 4 2 1 1 4 6 6 6 7 11 13 14 15 16 18 18 17 16 14 13 12 12 11 10 9 8 7
5 5 4 5 5 5 7 7 6 7 6 6 5 3 2 1 2 3 3 2 1 3 4 5 4 7 12 13 14 16 19 19 18 16 15 14 13 12 12 10 9 8 8
4 5 4 4 5 5 6 7 7 7 7 6 5 5 4 4 4 3 3 3 3 2 2 3 3 4 8 12 14 17 19 19 18 17 16 15 14 13 12 11 10 9 8
4 5 4 3 4 4 5 5 6 7 7 7 7 6 5 5 4 4 4 3 2 1 1 1 2 4 7 10 12 16 17 18 18 17 15 14 14 13 12 11 10 10 9
4 5 5 3 2 2 3 4 5 6 6 7 8 7 5 5 4 4 4 5 3 1 1 2 1 2 4 8 12 15 14 16 16 15 15 14 14 13 12 11 10 9 8
5 6 5 4 3 2 1 2 3 4 5 6 6 7 6 5 5 4 4 4 5 4 4 3 2 2 3 6 9 11 11 13 14 14 14 15 14 13 12 11 10 8 7
8 8 8 7 6 5 3 1 1 2 3 4 4 6 6 5 5 5 4 4 4 5 4 3 3 2 3 5 8 9 10 11 13 13 13 14 13 12 12 11 10 8 7
9 9 8 8 8 8 6 4 2 2 2 2 2 4 5 5 5 4 4 4 4 4 4 2 1 1 3 4 4 5 6 6 8 10 11 10 10 10 10 9 8 8 7
9 9 9 9 8 8 7 6 5 4 3 2 2 3 3 4 4 4 4 4 4 4 4 4 2 2 2 4 4 4 4 5 5 7 8 8 7 7 7 7 6 6 7
9 9 9 9 8 8 7 7 6 5 3 2 2 3 3 4 4 3 4 4 4 4 3 4 3 1 2 2 4 4 4 3 5 7 7 7 6 6 5 5 5 5 5
8 9 9 8 8 7 7 7 7 6 5 4 3 2 2 3 4 4 4 4 4 4 4 4 4 2 2 3 4 4 4 3 4 7 9 10 10 9 8 6 5 5 5
8 7 8 9 8 7 7 7 6 6 5 4 4 3 3 3 4 4 3 4 5 4 4 4 4 3 3 4 4 3 4 5 4 4 6 6 7 8 7 7 7 6 6
7 8 8 8 8 7 10 11 7 5 5 5 4 4 3 4 3 3 5 6 6 6 5 4 3 4 4 3 4 5 6 5 3 3 4 5 5 6 7 8 8 8 8
6 7 8 8 8 9 12 11 10 6 6 6 5 4 4 4 5 4 6 6 5 5 6 6 5 5 5 5 6 6 5 4 4 5 5 4 4 5 7 9 10 9 9
5 5 6 7 7 10 13 11 10 7 6 6 6 5 5 4 4 5 6 6 6 4 3 4 4 4 4 5 6 6 7 7 7 4 3 4 3 3 4 8 10 10 10
4 5 5 7 8 9 13 12 10 5 6 7 6 6 5 4 5 6 7 7 7 6 7 9 8 7 8 10 10 8 8 8 5 2 2 4 3 3 2 3 8 10 10
3 4 6 7 8 8 13 13 10 5 6 5 5 6 8 6 6 7 6 6 7 5 5 7 8 9 8 9 10 7 8 8 5 3 2 4 4 3 3 2 3 6 8
Wind_Direction
225 221 219 216 210 208 208 211 216 223 230 239 242 238 225 215 200 193 193 192 186 181 180 179 175 172 170 167 161 157 152 150 148 145 143 143 142 139 136 135 132 128 128
227 216 213 213 212 210 212 212 213 219 226 227 233 230 221 204 193 191 190 191 189 186 184 184 182 180 179 176 172 167 163 161 158 156 154 152 151 149 146 145 143 140 138
222 214 210 209 212 211 210 213 219 221 227 226 230 225 211 192 183 187 189 187 189 190 188 190 188 187 187 184 181 177 173 171 169 168 167 164 163 162 160 159 159 159 158
229 219 214 212 208 203 202 206 209 208 223 222 216 210 194 180 180 185 188 188 187 190 194 195 192 191 191 191 190 186 182 179 179 178 177 175 173 173 174 177 178 178 180
239 224 219 215 202 191 196 209 204 198 209 213 212 202 183 178 181 185 186 190 191 193 193 197 196 195 196 196 195 193 190 188 187 187 186 186 186 187 189 191 190 192 195
253 236 227 221 205 195 195 201 200 199 197 194 197 192 184 191 185 185 189 191 195 197 196 196 197 200 202 200 200 199 197 195 195 195 195 194 194 196 199 199 200 203 206
257 242 239 226 213 205 203 197 193 198 198 169 135 117 338 251 191 188 193 190 195 197 196 197 198 200 205 207 204 202 202 201 200 200 201 201 200 202 203 206 208 211 214
266 253 237 226 214 210 207 200 189 185 195 170 149 136 163 328 299 214 188 187 191 188 193 200 200 201 203 204 208 207 205 203 203 203 203 204 203 203 205 208 211 214 218
273 259 245 232 219 208 210 205 196 185 191 196 177 157 160 202 222 273 205 181 174 174 187 194 201 206 206 205 205 210 209 207 205 205 205 205 204 205 208 210 211 216 220
281 263 250 236 227 216 213 212 203 193 181 193 201 205 173 157 158 188 273 197 167 169 180 190 198 205 204 204 204 208 209 209 208 207 206 205 204 204 205 206 209 213 218
288 276 257 241 233 224 215 209 200 193 190 192 187 177 175 161 145 150 182 196 177 180 183 184 182 194 199 200 203 207 209 208 207 208 206 203 202 202 202 204 206 208 211
304 294 274 251 238 229 222 213 204 199 200 197 193 183 174 172 180 165 170 183 191 202 186 183 182 186 192 194 200 204 207 208 208 209 206 204 204 204 206 205 204 205 209
319 315 306 270 248 235 224 211 202 205 200 196 200 202 198 193 165 162 161 162 174 198 172 186 200 186 188 188 193 196 203 207 210 211 208 207 206 206 208 209 209 208 209
321 324 326 311 288 256 229 203 197 205 197 200 205 201 198 202 186 172 167 157 159 184 205 210 216 200 182 184 187 185 194 203 209 213 212 210 210 209 210 210 211 212 213
2 4 5 10 358 350 290 196 196 200 192 199 201 199 198 199 193 187 173 165 163 182 212 211 197 202 179 173 175 174 181 198 207 214 216 215 213 210 209 210 206 204 204
17 19 20 24 26 22 24 43 155 181 179 186 189 189 192 193 186 185 183 177 172 173 194 202 200 185 174 166 169 171 183 196 205 210 215 214 209 206 208 208 205 197 195
22 23 21 25 28 27 28 37 50 91 126 148 162 173 181 175 177 180 175 171 172 165 178 189 169 141 146 151 145 157 174 183 197 204 208 208 205 202 202 201 200 197 198
24 24 23 26 28 29 27 32 39 56 88 115 133 144 163 168 175 175 173 173 173 171 171 171 159 148 139 156 146 143 149 165 175 188 189 189 190 187 188 193 196 200 197
23 23 25 25 24 24 26 28 36 44 65 83 106 144 156 152 164 173 170 169 170 173 163 158 159 143 128 136 123 117 116 110 135 136 135 135 133 134 139 153 175 177 171
24 22 22 20 20 22 27 27 34 39 48 57 72 99 125 148 159 160 162 163 155 156 155 150 144 137 130 129 127 129 115 99 107 106 98 98 97 93 95 104 124 139 144
25 18 22 19 15 19 27 30 34 44 51 57 59 67 77 108 145 154 158 161 154 154 149 145 141 135 139 146 152 144 131 115 88 98 97 81 80 75 70 73 84 99 113
15 19 20 18 19 22 28 37 45 44 50 61 58 47 55 58 80 115 148 157 159 160 160 155 153 156 160 154 143 143 140 134 121 112 100 78 67 70 60 67 81 91 95
14 17 15 14 12 10 27 40 50 56 57 53 51 49 56 56 64 74 88 96 108 132 154 155 154 163 164 164 150 146 143 127 115 129 109 87 63 65 53 63 76 83 89
11 14 15 13 15 16 31 44 55 53 57 52 48 49 57 50 66 88 90 82 73 69 105 131 146 157 160 151 147 140 128 107 94 87 95 99 80 67 52 52 65 78 87
14 14 15 20 22 14 31 48 57 51 57 47 39 43 58 60 72 92 97 94 83 68 76 90 93 97 111 124 128 124 128 131 123 101 77 108 125 106 66 41 50 70 84
15 23 27 23 24 18 28 43 52 52 55 43 32 32 45 60 78 89 98 103 99 86 86 83 74 72 80 98 113 131 143 142 131 130 136 117 143 139 109 58 39 55 71
Height
1542 1543 1544 1545 1546 1546 1548 1549 1549 1550 1552 1553 1554 1555 1556 1558 1559 1560 1561 1561 1561 1561 1561 1562 1562 1563 1564 1565 1566 1567 1569 1569 1571 1571 1572 1573 1574 1575 1576 1576 1577 1577 1578
1538 1539 1539 1541 1542 1543 1545 1546 1548 1549 1550 1551 1552 1553 1554 1555 1557 1558 1560 1560 1560 1560 1560 1561 1562 1562 1564 1565 1566 1567 1568 1569 1570 1571 1573 1574 1574 1575 1576 1577 1577 1578 1578
1534 1535 1535 1536 1538 1539 1541 1543 1544 1546 1547 1548 1549 1551 1552 1553 1555 1556 1558 1559 1559 1559 1559 1560 1560 1561 1563 1564 1565 1566 1567 1569 1570 1571 1572 1573 1574 1575 1576 1576 1577 1577 1578
1529 1530 1531 1532 1533 1535 1537 1538 1540 1542 1543 1545 1547 1548 1549 1551 1552 1554 1556 1557 1558 1558 1558 1559 1559 1560 1562 1563 1564 1565 1566 1568 1569 1570 1571 1572 1574 1574 1575 1576 1576 1577 1577
1524 1525 1526 1527 1529 1530 1532 1534 1536 1538 1539 1542 1544 1545 1547 1548 1550 1552 1554 1555 1556 1557 1557 1558 1558 1559 1560 1561 1563 1564 1565 1566 1568 1569 1570 1571 1572 1573 1574 1575 1575 1576 1576
1519 1520 1521 1522 1524 1525 1527 1529 1531 1534 1536 1538 1541 1542 1544 1546 1548 1549 1551 1553 1554 1555 1556 1556 1557 1558 1559 1560 1561 1562 1564 1565 1566 1567 1568 1570 1571 1572 1573 1573 1574 1574 1575
1513 1514 1516 1517 1519 1520 1522 1525 1526 1529 1531 1534 1537 1539 1541 1543 1544 1546 1548 1550 1551 1553 1554 1555 1556 1557 1557 1558 1560 1561 1562 1563 1564 1566 1567 1568 1569 1570 1571 1572 1572 1573 1573
1509 1509 1510 1512 1513 1515 1517 1519 1522 1524 1526 1529 1532 1535 1537 1540 1540 1542 1544 1546 1548 1549 1551 1553 1554 1555 1556 1557 1558 1559 1560 1561 1563 1564 1565 1566 1567 1568 1569 1570 1570 1571 1571
1504 1505 1505 1506 1508 1510 1511 1513 1516 1519 1521 1524 1527 1530 1532 1533 1536 1538 1540 1542 1544 1546 1548 1549 1551 1553 1554 1555 1557 1558 1559 1560 1561 1562 1563 1564 1565 1566 1567 1567 1568 1569 1569
1500 1500 1501 1501 1503 1504 1506 1508 1510 1513 1516 1519 1522 1525 1528 1529 1532 1533 1536 1538 1540 1542 1544 1546 1548 1549 1551 1553 1554 1556 1557 1558 1559 1560 1561 1562 1563 1564 1565 1565 1566 1566 1567
1496 1496 1497 1497 1498 1499 1501 1503 1505 1507 1510 1513 1516 1519 1522 1525 1527 1529 1530 1533 1536 1538 1540 1542 1544 1546 1548 1550 1551 1553 1555 1556 1557 1558 1559 1560 1561 1562 1563 1563 1564 1564 1565
1493 1493 1493 1493 1494 1495 1496 1498 1500 1503 1505 1508 1511 1513 1516 1519 1521 1524 1526 1528 1531 1534 1536 1538 1540 1542 1544 1546 1548 1550 1552 1554 1555 1556 1557 1558 1559 1560 1561 1561 1562 1562 1563
1491 1490 1490 1489 1490 1490 1492 1493 1495 1498 1500 1502 1505 1508 1511 1514 1517 1520 1522 1525 1527 1530 1531 1533 1535 1538 1540 1542 1544 1546 1548 1550 1552 1553 1555 1556 1557 1558 1559 1559 1560 1560 1561
1490 1488 1487 1487 1487 1487 1488 1489 1491 1493 1495 1498 1500 1503 1506 1508 1512 1515 1518 1521 1523 1525 1527 1529 1531 1533 1536 1538 1540 1542 1544 1546 1548 1550 1551 1553 1554 1555 1556 1557 1558 1558 1559
1489 1488 1486 1485 1485 1484 1485 1486 1487 1489 1492 1494 1496 1498 1501 1503 1506 1509 1513 1516 1519 1520 1523 1525 1527 1529 1531 1534 1536 1538 1540 1542 1545 1546 1548 1550 1551 1552 1553 1554 1555 1556 1557
1490 1488 1486 1485 1484 1483 1483 1484 1485 1487 1489 1490 1492 1494 1497 1499 1502 1504 1507 1511 1513 1517 1519 1521 1523 1525 1527 1530 1532 1535 1537 1539 1541 1542 1544 1546 1548 1549 1550 1551 1552 1553 1554
1491 1489 1487 1486 1484 1483 1483 1484 1484 1485 1486 1488 1490 1491 1494 1496 1498 1500 1503 1506 1509 1512 1514 1517 1520 1522 1524 1526 1529 1531 1533 1535 1537 1539 1541 1542 1544 1545 1547 1548 1549 1550 1551
1493 1491 1489 1487 1486 1484 1484 1483 1483 1484 1485 1487 1488 1489 1491 1494 1496 1498 1500 1502 1505 1507 1511 1513 1516 1519 1521 1523 1525 1528 1530 1531 1534 1535 1537 1539 1540 1542 1543 1544 1546 1547 1548
1495 1493 1491 1489 1488 1486 1485 1484 1484 1484 1484 1486 1487 1489 1491 1492 1494 1496 1498 1500 1502 1504 1507 1510 1512 1515 1518 1520 1523 1525 1527 1529 1531 1533 1534 1536 1537 1538 1540 1541 1543 1544 1545
1497 1495 1493 1491 1490 1488 1487 1486 1486 1485 1485 1486 1487 1489 1490 1492 1493 1495 1496 1498 1500 1502 1504 1507 1510 1512 1515 1517 1520 1522 1524 1527 1529 1530 1532 1533 1535 1536 1537 1539 1540 1542 1543
1499 1497 1495 1493 1491 1490 1489 1488 1488 1487 1486 1487 1487 1489 1490 1491 1492 1494 1495 1497 1498 1500 1503 1505 1508 1510 1513 1515 1518 1520 1523 1525 1527 1529 1531 1532 1534 1535 1536 1537 1538 1540 1541
1501 1499 1497 1495 1493 1492 1491 1490 1489 1489 1488 1488 1488 1489 1490 1491 1492 1493 1495 1496 1498 1500 1501 1503 1506 1508 1511 1514 1516 1518 1521 1523 1526 1529 1530 1532 1534 1535 1535 1536 1537 1538 1539
1503 1501 1499 1497 1495 1493 1492 1491 1490 1490 1489 1489 1489 1490 1490 1491 1492 1493 1494 1495 1497 1499 1501 1503 1505 1507 1509 1512 1514 1517 1520 1522 1525 1527 1530 1531 1533 1534 1535 1536 1537 1537 1538
1506 1503 1501 1499 1497 1495 1494 1493 1492 1492 1491 1491 1491 1491 1491 1492 1492 1494 1495 1496 1498 1499 1501 1503 1505 1507 1510 1512 1514 1517 1519 1522 1525 1528 1530 1531 1533 1534 1535 1536 1536 1537 1537
1508 1506 1503 1501 1499 1497 1496 1495 1494 1493 1493 1492 1492 1492 1492 1493 1494 1495 1496 1497 1499 1501 1502 1504 1506 1508 1510 1512 1514 1517 1519 1521 1524 1527 1529 1530 1532 1534 1535 1536 1536 1537 1537
1510 1508 1506 1503 1501 1499 1498 1497 1496 1495 1495 1494 1494 1494 1494 1495 1496 1497 1498 1499 1501 1502 1503 1505 1507 1509 1511 1512 1514 1517 1519 1521 1523 1526 1528 1530 1532 1533 1535 1536 1536 1537 1537